sat.trackr.live / text

‹ back to catalog

STARLINK-3779

NORAD 52281 · 2022-041W

PAYLOAD ACTIVE UNKNOWN

§ Identity

Operator
Country
US
Launch date
2022-04-21
Launch site
AFETR
Launch vehicle
Mass (kg)
RCS (m²)

Purposes: comms

External: N2YO · Heavens-Above · Gunter

§ Orbital elements

Epoch: 2026-09-19T20:19:01.833600Z

Period
93.90 min
Inclination
53.1611°
Eccentricity
0.0001204
Mean motion
15.33546332 rev/d
Perigee alt
464.4 km
Apogee alt
466.1 km
Semi-major
6,843.4 km
B*
4.5592e-6
RAAN
310.8156°
Arg perigee
85.2030°
Mean anomaly
274.9110°
Rev number
24,376

§ Raw data

STARLINK-37791 52281U 22041W   26262.84654900 -.00000223  00000+0  45592-5 0  99982 52281  53.1611 310.8156 0001204  85.2030 274.9110 15.33546332243767

JSON: /api/v1/satellites/52281 · /tle

For live sub-satellite position, see the globe view (requires WebGL).

§ Visibility from observer

Set your observer location to see the next 7 days of passes ≥ 10°. The values pass through the URL so the page stays shareable.

No JS? Fill the form by hand. The geolocation button needs JavaScript.